Location: Jackson Park
(37.2862°N, 79.9123°W)
Time: 19:55:04
(UTC+00:00)

S-56A Canister/Altair - Pass Details

Date: 10 May 2026
Orbit: 633 x 2484 km, 38.9° (Epoch: 6 June)

Event Time Altitude Azimuth Distance (km) Brightness Sun altitude
Rises 09:22:05 0° 282° (WNW) 3,811 - -10.2°
Exits shadow 09:22:25 - 281° (WNW) 3,708 10.6 -10.2°
Reaches altitude 10° 09:24:38 10° 273° (W) 3,070 10.1 -9.8°
Maximum altitude 09:31:33 36° 210° (SSW) 2,220 9.4 -8.6°
Drops below altitude 10° 09:41:23 10° 150° (SSE) 4,378 11.4 -6.9°
Sets 09:45:50 0° 143° (SE) 5,642 12.1 -6.1°
